Tracking 27371 objects as of 7-Jun-2023
HD Live streaming from Space Station
objects crossing your sky now

FENGYUN 1C DEB

Track FENGYUN 1C DEB now!
10-day predictions


NORAD ID: 30565
Int'l Code: 1999-025ALF
Perigee: 783.8 km
Apogee: 1,017.9 km
Inclination: 98.5 °
Period: 102.9 minutes
Semi major axis: 7271 km
RCS: 0.0268 m2 (small)
Launch date: May 10, 1999
Source: People's Republic of China (PRC)
Launch site: Taiyaun Space Center, China (TSC)

Note: This is SATELLITE DEBRIS
Your satellite tracking list
Your tracking list is empty




NASA's NSSDC Master Catalog

Two Line Element Set (TLE):
1 30565U 99025ALF 23157.21460503  .00003348  00000-0  20569-2 0  9995
2 30565  98.4942  76.1861 0160923  81.0701  76.7713 14.00027454830148
Source of the keplerian elements: AFSPC